[[{"header":{"parameterUnit":"m.s-1","parameterCategory":1,"la1":30.2991,"la2":30.254,"lo1":-89.0895,"lo2":-89.0444,"dy":0.0017,"dx":0.0017,"nx":28,"ny":28,"refTime":"2025-01-15T03:00:00:Z","depth":0,"parameterNumber":2,"parameterNumberName":"U-component_of_WINDS"},"data":[0,0,0,0,0,0,0,0,0,0,0,0,0,0,0,0,0,0,0,0,0,0,0,0,0,0,0,0,0,0,0,0,0,0,0,0,0,0,0,0,0,0,0,0,0,0,0,0,0,0,0,0,0,0,0,0,0,0,-1.9207,-1.9207,0,-1.9191,-1.919,-1.919,-1.9152,-1.9151,-1.9151,-1.915,-1.9134,-1.9135,-1.9135,0,0,0,0,0,0,0,0,0,0,0,0,0,-1.9207,-1.9208,-1.9207,-1.9207,-1.9207,-1.9191,-1.919,-1.919,-1.9152,-1.9151,-1.915,-1.915,-1.9134,-1.9135,-1.9135,0,0,0,0,0,0,0,0,0,0,0,0,0,-1.9201,-1.9208,-1.9207,-1.9186,-1.9184,-1.9191,-1.919,-1.919,-1.9153,-1.9151,-1.915,-1.9149,-1.9134,-1.9135,-1.9135,-1.9162,0,0,-1.9137,-1.9137,0,0,0,0,0,0,0,0,-1.9201,-1.9201,-1.9189,-1.9187,-1.9185,-1.9172,-1.9185,-1.9181,-1.9153,-1.9165,-1.915,-1.9149,-1.9148,-1.9147,-1.9147,-1.9161,-1.916,-1.9137,-1.9137,-1.9137,-1.9137,0,0,0,0,0,0,0,-1.9202,-1.9201,-1.9201,-1.9189,-1.9187,-1.9178,-1.9175,-1.9184,-1.9163,-1.9163,-1.9161,-1.9159,-1.9147,-1.9146,-1.9146,-1.916,-1.9137,-1.9137,-1.9137,-1.9137,-1.9196,-1.9198,0,0,0,0,0,0,-1.9205,-1.9202,-1.9201,-1.92,-1.919,-1.9179,-1.9176,-1.9178,-1.9163,-1.916,-1.916,-1.9157,-1.9146,-1.9146,-1.9145,-1.9177,-1.9137,-1.9138,-1.9138,-1.9195,-1.9197,-1.9198,0,0,0,0,0,0,-1.9205,-1.9205,-1.9202,-1.92,-1.9199,-1.918,-1.9182,-1.9178,-1.9178,-1.916,-1.9157,-1.9164,-1.9145,-1.9145,-1.9158,-1.9176,-1.9138,-1.9138,-1.9194,-1.9196,-1.9197,-1.9239,0,0,0,0,0,0,-1.9205,-1.9206,-1.9215,-1.9201,-1.9199,-1.9214,-1.9183,-1.9178,-1.9178,-1.9175,-1.9163,-1.916,-1.9144,-1.9158,-1.9159,-1.9176,-1.9139,-1.9192,-1.9195,-1.9197,-1.9236,-1.9242,-1.9247,0,0,0,0,0,-1.9205,-1.9227,-1.9216,-1.9216,-1.9211,-1.9215,-1.9215,-1.9196,-1.918,-1.919,-1.9179,-1.916,-1.9173,-1.9159,-1.916,-1.9177,-1.9191,-1.9194,-1.9197,-1.9233,-1.9241,-1.9247,0,0,0,0,0,0,-1.9244,-1.9225,-1.9212,-1.923,-1.9225,-1.9209,-1.9221,-1.9204,-1.9204,-1.9201,-1.9178,-1.9176,-1.9192,-1.9186,-1.9171,-1.9203,-1.9179,-1.9182,-1.9207,-1.9214,-1.9219,-1.9221,-1.9139,0,0,0,0,0,-1.9255,-1.926,-1.9243,-1.926,-1.9258,-1.924,-1.9241,-1.9228,-1.9221,-1.9219,-1.9209,-1.9204,-1.9207,-1.921,-1.9212,-1.9234,-1.9232,-1.9247,-1.9252,-1.9257,-1.926,-1.9273,-1.928,-1.9208,-1.9207,-1.9207,0,0,-1.9277,-1.9267,-1.9272,-1.9268,-1.9262,-1.9269,-1.9238,-1.9246,-1.9251,-1.922,-1.9233,-1.9225,-1.9218,-1.9237,-1.9244,-1.9232,-1.928,-1.9261,-1.9265,-1.9265,-1.9277,-1.9284,-1.929,-1.9209,-1.9209,-1.9209,0,0,-1.9321,-1.9313,-1.9328,-1.9323,-1.9314,-1.9302,-1.9306,-1.9293,-1.9287,-1.9298,-1.9276,-1.9281,-1.9287,-1.9283,-1.9282,-1.9325,-1.9308,-1.9326,-1.9356,-1.9369,-1.9375,-1.938,-1.9396,-1.9402,-1.933,-1.933,-1.933,0,-1.935,-1.9358,-1.9337,-1.9347,-1.9346,-1.9318,-1.9333,-1.9329,-1.9322,-1.9323,-1.9309,-1.9316,-1.9309,-1.9327,-1.9338,-1.9337,-1.9341,-1.9328,-1.9375,-1.938,-1.9385,-1.94,-1.9406,-1.9332,-1.9332,-1.9331,-1.9331,0,-1.9394,-1.94,-1.9413,-1.9407,-1.9408,-1.942,-1.9401,-1.9405,-1.9391,-1.9381,-1.9393,-1.9384,-1.9385,-1.9387,-1.9374,-1.9404,-1.9397,-1.9379,-1.9355,-1.9394,-1.9409,-1.9414,-1.9335,-1.9335,-1.9334,-1.9333,0,0,-1.9463,-1.9445,-1.945,-1.9447,-1.9436,-1.9441,-1.9452,-1.9452,-1.9456,-1.9452,-1.9462,-1.9467,-1.9451,-1.945,-1.9436,-1.9447,-1.9484,-1.9429,-1.9428,-1.944,-1.9517,-1.9531,-1.9538,-1.9472,-1.9473,-1.9474,-1.9518,0,-1.9505,-1.9522,-1.9504,-1.9526,-1.9532,-1.9506,-1.9516,-1.9511,-1.9502,-1.9506,-1.9495,-1.95,-1.9478,-1.9478,-1.9487,-1.9477,-1.9499,-1.9474,-1.9482,-1.9482,-1.9486,-1.9546,-1.956,-1.9603,-1.9524,-1.9525,-1.9525,0,-1.9556,-1.9555,-1.9577,-1.9566,-1.9568,-1.9577,-1.9576,-1.958,-1.9574,-1.9566,-1.9565,-1.9548,-1.9559,-1.9535,-1.955,-1.9534,-1.9536,-1.9531,-1.9533,-1.9534,-1.9507,-1.955,-1.9615,-1.9622,-1.9534,-1.9533,-1.9532,0,-1.9605,-1.9609,-1.9623,-1.9622,-1.9608,-1.9615,-1.961,-1.9603,-1.9604,-1.9603,-1.9604,-1.9605,-1.9605,-1.9606,-1.9591,-1.9574,-1.9609,-1.9583,-1.9604,-1.9604,-1.9613,-1.9613,-1.9682,-1.9613,-1.9612,-1.9612,-1.9612,0,-1.9655,-1.967,-1.9645,-1.9654,-1.9671,-1.965,-1.9667,-1.9659,-1.9653,-1.966,-1.9638,-1.9645,-1.9623,-1.9629,-1.9616,-1.9632,-1.9632,-1.9627,-1.9624,-1.963,-1.9631,-1.9632,-1.9629,-1.9614,-1.9614,-1.9613,-1.9613,0,-1.9713,-1.9697,-1.9711,-1.9697,-1.9694,-1.9707,-1.9695,-1.9703,-1.9692,-1.9702,-1.9703,-1.9687,-1.9692,-1.9676,-1.9679,-1.9671,-1.9694,-1.9685,-1.9696,-1.9694,-1.9716,-1.9715,-1.9789,-1.9798,-1.9722,-1.9723,-1.9724,0,-1.9746,-1.9757,-1.9745,-1.9748,-1.9744,-1.9749,-1.9751,-1.9731,-1.9733,-1.9728,-1.9737,-1.974,-1.9742,-1.9752,-1.9741,-1.9743,-1.9735,-1.9761,-1.9736,-1.9742,-1.9737,-1.9737,-1.9739,-1.9767,-1.9768,-1.9768,-1.9769,0,-1.9807,-1.9799,-1.9802,-1.9802,-1.9804,-1.9803,-1.9801,-1.9805,-1.9784,-1.9788,-1.9793,-1.9795,-1.9798,-1.9802,-1.9802,-1.9797,-1.978,-1.9777,-1.9782,-1.9789,-1.9796,-1.9794,-1.9712,-1.9776,-1.9775,-1.9775,-1.9774,-1.9774,-1.9855,-1.9864,-1.9857,-1.9861,-1.9857,-1.9856,-1.9863,-1.9853,-1.9857,-1.9858,-1.9846,-1.9854,-1.9848,-1.9846,-1.9843,-1.985,-1.9838,-1.9845,-1.9848,-1.985,-1.9854,-1.9794,-1.985,-1.985,-1.9849,-1.9849,-1.9849,0,-1.9916,-1.991,-1.9914,-1.9912,-1.9915,-1.9898,-1.9895,-1.9899,-1.9906,-1.9902,-1.9905,-1.9911,-1.9915,-1.9904,-1.9907,-1.9915,-1.9907,-1.9916,-1.9916,-1.9916,-1.9864,-1.986,-1.9922,-1.9922,-1.9922,-1.9922,-1.9922,-1.9922,-1.9948,-1.9963,-1.9954,-1.9967,-1.9961,-1.9969,-1.9969,-1.9968,-1.9964,-1.9973,-1.9976,-1.9969,-1.9962,-1.9964,-1.9968,-1.9964,-1.9967,-1.9979,-1.9974,-1.9926,-1.9919,-1.9912,-1.9908,-1.998,-1.998,-2.0025,-2.0025,-2.0025]},{"header":{"parameterUnit":"m.s-1","parameterCategory":1,"la1":30.2991,"la2":30.254,"lo1":-89.0895,"lo2":-89.0444,"dy":0.0017,"dx":0.0017,"nx":28,"ny":28,"refTime":"2025-01-15T03:00:00:Z","depth":0,"parameterNumber":3,"parameterNumberName":"V-component_of_WINDS"},"data":[0,0,0,0,0,0,0,0,0,0,0,0,0,0,0,0,0,0,0,0,0,0,0,0,0,0,0,0,0,0,0,0,0,0,0,0,0,0,0,0,0,0,0,0,0,0,0,0,0,0,0,0,0,0,0,0,0,0,-2.821,-2.821,0,-2.8218,-2.8218,-2.8218,-2.8195,-2.8194,-2.8194,-2.8193,-2.8199,-2.82,-2.8201,0,0,0,0,0,0,0,0,0,0,0,0,0,-2.8174,-2.8174,-2.821,-2.821,-2.8211,-2.8218,-2.8218,-2.8218,-2.8195,-2.8194,-2.8194,-2.8193,-2.8199,-2.82,-2.8201,0,0,0,0,0,0,0,0,0,0,0,0,0,-2.8186,-2.8175,-2.821,-2.82,-2.8199,-2.8218,-2.8218,-2.8218,-2.8195,-2.8194,-2.8193,-2.8192,-2.8198,-2.82,-2.8201,-2.8229,0,0,-2.8204,-2.8205,0,0,0,0,0,0,0,0,-2.8186,-2.8188,-2.8201,-2.8201,-2.82,-2.8205,-2.8207,-2.8222,-2.8196,-2.8197,-2.8193,-2.8192,-2.8202,-2.8202,-2.8206,-2.823,-2.823,-2.8205,-2.8205,-2.8206,-2.8206,0,0,0,0,0,0,0,-2.8185,-2.8187,-2.8213,-2.8202,-2.8201,-2.8194,-2.8195,-2.821,-2.8205,-2.8197,-2.8195,-2.8196,-2.8201,-2.8205,-2.8206,-2.823,-2.8205,-2.8206,-2.8206,-2.8207,-2.8279,-2.828,0,0,0,0,0,0,-2.8186,-2.8187,-2.8213,-2.8214,-2.819,-2.8196,-2.8197,-2.8204,-2.8205,-2.8204,-2.8197,-2.8195,-2.8203,-2.8205,-2.8206,-2.8242,-2.8206,-2.8207,-2.8208,-2.8278,-2.8279,-2.8281,0,0,0,0,0,0,-2.8185,-2.8188,-2.8213,-2.82,-2.8202,-2.8198,-2.8206,-2.8205,-2.8209,-2.8205,-2.8204,-2.8203,-2.8203,-2.8205,-2.8224,-2.8241,-2.8207,-2.8209,-2.8276,-2.8278,-2.828,-2.8311,0,0,0,0,0,0,-2.8184,-2.8188,-2.8199,-2.82,-2.8203,-2.8231,-2.8207,-2.8206,-2.8211,-2.8209,-2.821,-2.8209,-2.8202,-2.8223,-2.8226,-2.8242,-2.821,-2.8275,-2.8277,-2.8279,-2.8309,-2.8314,-2.8319,0,0,0,0,0,-2.8183,-2.8207,-2.82,-2.8203,-2.8217,-2.8232,-2.8234,-2.8226,-2.8213,-2.8224,-2.8222,-2.8209,-2.8239,-2.8225,-2.8228,-2.8245,-2.8274,-2.8277,-2.8279,-2.8307,-2.8313,-2.8318,0,0,0,0,0,0,-2.8207,-2.8207,-2.8199,-2.8224,-2.8229,-2.8228,-2.8242,-2.8233,-2.824,-2.8238,-2.8227,-2.8227,-2.8249,-2.8249,-2.8234,-2.8274,-2.8254,-2.8257,-2.8274,-2.828,-2.8285,-2.8285,-2.8211,0,0,0,0,0,-2.8215,-2.8228,-2.8227,-2.8249,-2.8252,-2.8247,-2.8253,-2.8247,-2.8251,-2.8252,-2.8251,-2.8255,-2.8265,-2.8272,-2.8281,-2.8308,-2.8309,-2.8322,-2.8326,-2.833,-2.8334,-2.835,-2.8357,-2.8289,-2.8289,-2.8289,0,0,-2.8232,-2.8234,-2.8243,-2.8254,-2.8257,-2.8271,-2.8249,-2.8263,-2.8274,-2.8254,-2.8274,-2.8273,-2.8276,-2.8301,-2.8311,-2.8301,-2.8353,-2.8334,-2.8337,-2.8339,-2.8354,-2.836,-2.8366,-2.8291,-2.8291,-2.8291,0,0,-2.8272,-2.8273,-2.8293,-2.8297,-2.8302,-2.8298,-2.8303,-2.8304,-2.8304,-2.8323,-2.8309,-2.8321,-2.8338,-2.8342,-2.8346,-2.8387,-2.8376,-2.839,-2.8416,-2.8432,-2.8437,-2.8442,-2.8459,-2.8465,-2.8393,-2.8393,-2.8393,0,-2.8292,-2.8313,-2.8304,-2.8321,-2.8328,-2.8311,-2.8332,-2.8335,-2.8342,-2.8346,-2.8335,-2.8358,-2.8358,-2.8384,-2.8395,-2.8398,-2.8403,-2.8391,-2.8437,-2.8442,-2.8446,-2.8462,-2.8468,-2.8395,-2.8395,-2.8395,-2.8395,0,-2.834,-2.8354,-2.837,-2.8379,-2.8386,-2.8405,-2.8399,-2.8407,-2.84,-2.8398,-2.8418,-2.8419,-2.8429,-2.8433,-2.8426,-2.8459,-2.8453,-2.8439,-2.8419,-2.8455,-2.8469,-2.8475,-2.8398,-2.8397,-2.8397,-2.8396,0,0,-2.8395,-2.84,-2.8406,-2.8411,-2.8415,-2.8426,-2.8443,-2.8454,-2.8463,-2.8467,-2.8483,-2.8498,-2.8487,-2.8491,-2.8484,-2.8498,-2.8533,-2.8483,-2.8483,-2.8494,-2.8571,-2.8583,-2.859,-2.8525,-2.8526,-2.8527,-2.8572,0,-2.8435,-2.8467,-2.846,-2.8492,-2.8506,-2.8491,-2.8506,-2.8511,-2.8509,-2.852,-2.8517,-2.853,-2.8512,-2.8515,-2.8528,-2.8526,-2.8549,-2.8522,-2.854,-2.8541,-2.8542,-2.8597,-2.861,-2.8652,-2.8577,-2.8578,-2.8579,0,-2.8487,-2.8496,-2.853,-2.8534,-2.8539,-2.8554,-2.8564,-2.8574,-2.8579,-2.8577,-2.8583,-2.8573,-2.859,-2.8569,-2.8593,-2.8576,-2.8582,-2.8582,-2.8584,-2.8587,-2.8564,-2.8604,-2.8665,-2.8672,-2.8587,-2.8587,-2.8586,0,-2.8527,-2.8547,-2.8571,-2.8575,-2.8579,-2.859,-2.8592,-2.8595,-2.8603,-2.8611,-2.8616,-2.8625,-2.8631,-2.8638,-2.8632,-2.8616,-2.8658,-2.8635,-2.8658,-2.8658,-2.8669,-2.8669,-2.8734,-2.8669,-2.8669,-2.8669,-2.8669,0,-2.8574,-2.8596,-2.8589,-2.8604,-2.8627,-2.8619,-2.8642,-2.8642,-2.8646,-2.866,-2.8646,-2.8659,-2.8649,-2.8661,-2.8655,-2.8678,-2.8679,-2.8679,-2.8677,-2.8682,-2.8682,-2.8687,-2.8685,-2.867,-2.867,-2.867,-2.8669,0,-2.8624,-2.862,-2.8645,-2.8647,-2.8648,-2.8666,-2.8668,-2.8681,-2.8679,-2.8697,-2.87,-2.8696,-2.871,-2.8704,-2.8717,-2.8714,-2.8743,-2.8737,-2.8743,-2.8742,-2.8765,-2.8764,-2.8838,-2.8848,-2.8775,-2.8775,-2.8776,0,-2.8655,-2.8672,-2.8677,-2.8686,-2.869,-2.8704,-2.8712,-2.8704,-2.8713,-2.872,-2.8733,-2.8746,-2.8756,-2.8779,-2.8777,-2.8788,-2.8783,-2.8808,-2.8784,-2.8789,-2.8786,-2.8786,-2.8789,-2.8813,-2.8814,-2.8815,-2.8816,0,-2.8712,-2.871,-2.8723,-2.8736,-2.8746,-2.8755,-2.8763,-2.8771,-2.8763,-2.8773,-2.8788,-2.8796,-2.8812,-2.8825,-2.8835,-2.8836,-2.8825,-2.8823,-2.8829,-2.8834,-2.8838,-2.8839,-2.8758,-2.8822,-2.8821,-2.8821,-2.882,-2.882,-2.8755,-2.8771,-2.8777,-2.8792,-2.8797,-2.8805,-2.8819,-2.8819,-2.8831,-2.8844,-2.8838,-2.8856,-2.886,-2.8873,-2.8876,-2.8889,-2.888,-2.8888,-2.889,-2.8893,-2.8898,-2.8834,-2.8891,-2.8891,-2.889,-2.889,-2.889,0,-2.8814,-2.8818,-2.8832,-2.8845,-2.8857,-2.8845,-2.8853,-2.8864,-2.8881,-2.8886,-2.8897,-2.8915,-2.8928,-2.8927,-2.8939,-2.8951,-2.8946,-2.8954,-2.8955,-2.8956,-2.8904,-2.8899,-2.8958,-2.8958,-2.8958,-2.8958,-2.8958,-2.8958,-2.8846,-2.8872,-2.8871,-2.8899,-2.8902,-2.8921,-2.8927,-2.8934,-2.8939,-2.896,-2.8972,-2.8971,-2.8974,-2.8987,-2.8999,-2.8998,-2.9004,-2.9015,-2.9013,-2.8965,-2.8959,-2.8953,-2.8948,-2.9016,-2.9016,-2.9063,-2.9063,-2.9064]}]]